Location: Bonny Doon Airfield
(37.0704°N, 122.1252°W)
Time: 15:54:40
(UTC-07:00)

Tiangong 2 - Pass Details

Date: 11 October 2017
Orbit: 388 x 391 km, 42.8° (Epoch: 21 October)

Event Time Altitude Azimuth Distance (km) Brightness Sun altitude
Exits shadow 06:15:50 19° 294° (WNW) 991 2.6 -12.2°
Maximum altitude 06:17:34 34° 348° (NNW) 662 2.1 -11.8°
Drops below altitude 10° 06:20:33 10° 56° (ENE) 1,421 4.8 -11.2°
Sets 06:22:44 0° 66° (ENE) 2,278 6.3 -10.8°
